[[{"header":{"parameterUnit":"m.s-1","parameterCategory":2,"la1":30.2991,"la2":30.254,"lo1":-89.0895,"lo2":-89.0444,"dy":0.0017,"dx":0.0017,"nx":28,"ny":28,"refTime":"2023-09-03T21:00:00:Z","depth":"0","parameterNumber":2,"parameterNumberName":"U-component_of_CURRENTS"},"data":[0,0,0,0,0,0,0,0,0,0,0,0,0,0,0,0,0,0,0,0,0,0,0,0,0,0,0,0,0,0,0,0,0,0,0,0,0,0,0,0,0,0,0,0,0,0,0,0,0,0,0,0,0,0,0,0,0,0,0.1565,0.1565,0,0.1567,0.1567,0.1567,0.1558,0.1557,0.1557,0.1557,0.1547,0.1546,0.1546,0,0,0,0,0,0,0,0,0,0,0,0,0,0.1548,0.1548,0.1565,0.1565,0.1565,0.1567,0.1567,0.1567,0.1558,0.1557,0.1557,0.1557,0.1547,0.1546,0.1546,0,0,0,0,0,0,0,0,0,0,0,0,0,0.1551,0.1548,0.1565,0.1562,0.1562,0.1567,0.1567,0.1567,0.1558,0.1557,0.1557,0.1557,0.1547,0.1546,0.1546,0.1547,0,0,0.1545,0.1545,0,0,0,0,0,0,0,0,0.1551,0.1552,0.1563,0.1563,0.1563,0.1564,0.1557,0.156,0.1558,0.1557,0.1557,0.1557,0.1552,0.1552,0.155,0.1547,0.1547,0.1545,0.1545,0.1545,0.1545,0,0,0,0,0,0,0,0.1551,0.1552,0.1564,0.1563,0.1563,0.1559,0.156,0.1558,0.1554,0.1557,0.1557,0.156,0.1552,0.155,0.155,0.1546,0.1545,0.1545,0.1545,0.1545,0.1566,0.1567,0,0,0,0,0,0,0.1555,0.1551,0.1564,0.1564,0.1558,0.156,0.156,0.1562,0.1554,0.1554,0.1561,0.156,0.1551,0.155,0.1549,0.1566,0.1545,0.1545,0.1544,0.1565,0.1566,0.1567,0,0,0,0,0,0,0.1554,0.1556,0.1564,0.1559,0.156,0.1561,0.1563,0.1562,0.1563,0.1557,0.1556,0.1563,0.1551,0.155,0.1554,0.1565,0.1545,0.1544,0.1564,0.1565,0.1566,0.1591,0,0,0,0,0,0,0.1554,0.1556,0.1557,0.156,0.1561,0.1571,0.1563,0.1562,0.1566,0.1566,0.1559,0.1558,0.155,0.1554,0.1553,0.1565,0.1544,0.1563,0.1565,0.1566,0.1589,0.1592,0.1595,0,0,0,0,0,0.1553,0.1556,0.1557,0.1559,0.1563,0.1572,0.1572,0.157,0.1567,0.157,0.1567,0.1558,0.1563,0.1555,0.1553,0.1565,0.1563,0.1564,0.1566,0.1587,0.1592,0.1595,0,0,0,0,0,0,0.1545,0.1555,0.1557,0.1561,0.1569,0.1571,0.1574,0.1574,0.1574,0.1573,0.1564,0.1563,0.1572,0.1567,0.1558,0.1576,0.1562,0.1564,0.1579,0.1583,0.1586,0.1588,0.1544,0,0,0,0,0,0.1546,0.1551,0.1561,0.1564,0.157,0.1573,0.1576,0.1577,0.1579,0.1578,0.1574,0.1573,0.1578,0.1579,0.1578,0.1587,0.1598,0.1595,0.1598,0.1601,0.1603,0.1633,0.1639,0.1572,0.1572,0.1572,0,0,0.1542,0.155,0.1551,0.1563,0.1568,0.1578,0.1574,0.1582,0.1589,0.1577,0.1582,0.1583,0.1582,0.1592,0.1596,0.1589,0.1628,0.1603,0.1605,0.1606,0.1635,0.1642,0.1648,0.1573,0.1573,0.1573,0,0,0.154,0.1547,0.1552,0.1562,0.1576,0.1581,0.1586,0.1593,0.1596,0.1603,0.16,0.1609,0.1608,0.1615,0.1617,0.1639,0.1644,0.1641,0.1659,0.1688,0.1694,0.1699,0.1731,0.1738,0.1643,0.1643,0.1643,0,0.1535,0.1544,0.1554,0.1566,0.1574,0.1585,0.1594,0.1601,0.1608,0.1615,0.1608,0.1624,0.162,0.1643,0.1649,0.1647,0.1665,0.1642,0.1692,0.1698,0.1703,0.1734,0.1742,0.1644,0.1644,0.1644,0.1644,0,0.1539,0.1548,0.1554,0.1572,0.1583,0.1593,0.1609,0.162,0.1624,0.1633,0.1653,0.1654,0.1666,0.1669,0.1663,0.1698,0.1702,0.1693,0.1682,0.1711,0.1742,0.175,0.1646,0.1646,0.1645,0.1645,0,0,0.1518,0.155,0.1551,0.1562,0.1587,0.1595,0.1616,0.1638,0.1655,0.1665,0.1688,0.1697,0.1703,0.1706,0.1708,0.1731,0.1781,0.1727,0.1728,0.1758,0.1854,0.1875,0.1885,0.1782,0.1784,0.1785,0.1865,0,0.1517,0.1536,0.1554,0.1572,0.1582,0.1606,0.1625,0.1648,0.1666,0.1692,0.171,0.1729,0.1717,0.1727,0.1749,0.1773,0.1802,0.176,0.1822,0.1824,0.1838,0.1895,0.1874,0.1946,0.1873,0.1874,0.1875,0,0.151,0.1526,0.154,0.1574,0.1582,0.1595,0.1631,0.1651,0.1696,0.1714,0.1744,0.1758,0.1798,0.1779,0.1842,0.1818,0.1838,0.1855,0.1858,0.1873,0.186,0.1904,0.1963,0.1946,0.1888,0.1887,0.1886,0,0.1481,0.1514,0.1524,0.1535,0.1575,0.1588,0.1611,0.1653,0.1676,0.1732,0.176,0.1803,0.1834,0.1865,0.1902,0.1876,0.1977,0.1944,0.1983,0.1985,0.1977,0.1976,0.2025,0.1991,0.1991,0.199,0.199,0,0.1466,0.1472,0.1512,0.1516,0.1533,0.1571,0.1594,0.163,0.1684,0.1719,0.1768,0.1814,0.1857,0.1916,0.1932,0.2,0.2006,0.2005,0.2014,0.1986,0.1985,0.1975,0.1948,0.1993,0.1993,0.1992,0.1992,0,0.1424,0.1451,0.1463,0.1505,0.1516,0.1527,0.1576,0.1601,0.1662,0.1714,0.1736,0.1835,0.1925,0.1975,0.2045,0.205,0.2057,0.2119,0.2088,0.2092,0.2093,0.2067,0.1999,0.1925,0.2171,0.2172,0.2173,0,0.1402,0.1406,0.1441,0.1448,0.1463,0.1488,0.1509,0.1574,0.1608,0.1727,0.1757,0.1872,0.1947,0.2081,0.2136,0.22,0.2108,0.2196,0.2136,0.2113,0.209,0.1952,0.1883,0.2138,0.2139,0.2139,0.2139,0,0.1361,0.1374,0.1387,0.1403,0.1421,0.1439,0.1478,0.1499,0.1588,0.1656,0.1759,0.1834,0.2,0.2087,0.2194,0.2219,0.2105,0.2207,0.2191,0.2085,0.1929,0.1856,0.2065,0.2143,0.2143,0.2143,0.2143,0.2142,0.1325,0.1324,0.1345,0.1352,0.1373,0.1383,0.138,0.144,0.1496,0.1584,0.1707,0.1819,0.2009,0.2176,0.2189,0.224,0.2144,0.22,0.2177,0.2044,0.1947,0.2172,0.2252,0.2253,0.2253,0.2253,0.2253,0,0.1275,0.1282,0.1294,0.1299,0.1295,0.1327,0.1355,0.1352,0.1394,0.1536,0.1627,0.1846,0.1989,0.212,0.2272,0.2231,0.2073,0.218,0.1988,0.1924,0.2161,0.2137,0.2187,0.2187,0.2187,0.2187,0.2187,0.2187,0.1249,0.1237,0.1243,0.1215,0.1221,0.1197,0.1196,0.1215,0.1299,0.1423,0.1562,0.17,0.1975,0.2224,0.2282,0.2227,0.2029,0.196,0.1891,0.2102,0.2101,0.21,0.2073,0.2108,0.2108,0.1575,0.1572,0.1569]},{"header":{"parameterUnit":"m.s-1","parameterCategory":2,"la1":30.2991,"la2":30.254,"lo1":-89.0895,"lo2":-89.0444,"dy":0.0017,"dx":0.0017,"nx":28,"ny":28,"refTime":"2023-09-03T21:00:00:Z","depth":"0","parameterNumber":3,"parameterNumberName":"V-component_of_CURRENTS"},"data":[0,0,0,0,0,0,0,0,0,0,0,0,0,0,0,0,0,0,0,0,0,0,0,0,0,0,0,0,0,0,0,0,0,0,0,0,0,0,0,0,0,0,0,0,0,0,0,0,0,0,0,0,0,0,0,0,0,0,-0.0063,-0.0064,0,-0.0112,-0.0113,-0.0113,-0.014,-0.014,-0.014,-0.014,-0.0194,-0.0195,-0.0196,0,0,0,0,0,0,0,0,0,0,0,0,0,-0.0018,-0.0018,-0.0063,-0.0064,-0.0064,-0.0112,-0.0113,-0.0113,-0.014,-0.014,-0.014,-0.014,-0.0193,-0.0195,-0.0196,0,0,0,0,0,0,0,0,0,0,0,0,0,-0.0049,-0.0018,-0.0063,-0.0083,-0.0085,-0.0112,-0.0113,-0.0114,-0.014,-0.014,-0.014,-0.014,-0.0193,-0.0195,-0.0197,-0.0209,0,0,-0.0203,-0.0204,0,0,0,0,0,0,0,0,-0.0047,-0.0051,-0.008,-0.0082,-0.0084,-0.012,-0.0116,-0.0145,-0.014,-0.0119,-0.014,-0.014,-0.0169,-0.0173,-0.0183,-0.0211,-0.0213,-0.0203,-0.0205,-0.0205,-0.0206,0,0,0,0,0,0,0,-0.0045,-0.0049,-0.0083,-0.008,-0.0083,-0.0098,-0.0102,-0.0122,-0.0144,-0.0121,-0.0123,-0.0128,-0.017,-0.018,-0.0184,-0.0214,-0.0203,-0.0205,-0.0206,-0.0207,-0.0247,-0.0247,0,0,0,0,0,0,-0.0037,-0.0047,-0.0081,-0.0084,-0.0065,-0.0099,-0.0104,-0.0108,-0.0143,-0.0149,-0.0128,-0.0129,-0.0177,-0.0182,-0.0186,-0.0189,-0.0205,-0.0207,-0.0209,-0.0247,-0.0247,-0.0247,0,0,0,0,0,0,-0.0036,-0.004,-0.0079,-0.0066,-0.0073,-0.0099,-0.0105,-0.0109,-0.0118,-0.0148,-0.0154,-0.0131,-0.0177,-0.0183,-0.0198,-0.0192,-0.0208,-0.021,-0.0247,-0.0247,-0.0247,-0.0204,0,0,0,0,0,0,-0.0035,-0.0039,-0.0039,-0.0066,-0.0073,-0.009,-0.0105,-0.011,-0.0121,-0.0123,-0.0153,-0.0158,-0.0178,-0.0195,-0.02,-0.0195,-0.0212,-0.0248,-0.0247,-0.0247,-0.0205,-0.0202,-0.0199,0,0,0,0,0,-0.0033,-0.0031,-0.0039,-0.0043,-0.0072,-0.0089,-0.0094,-0.0114,-0.0121,-0.0122,-0.0141,-0.0157,-0.0196,-0.0196,-0.0202,-0.0198,-0.0248,-0.0247,-0.0247,-0.0207,-0.0203,-0.0199,0,0,0,0,0,0,-0.001,-0.0034,-0.0043,-0.0049,-0.0065,-0.0094,-0.0097,-0.011,-0.0127,-0.0128,-0.0156,-0.0162,-0.0173,-0.0192,-0.0191,-0.0208,-0.0224,-0.0225,-0.0192,-0.0188,-0.0185,-0.0178,-0.0214,0,0,0,0,0,-0.0005,-0.001,-0.0035,-0.0038,-0.0046,-0.007,-0.008,-0.0092,-0.0111,-0.0118,-0.0139,-0.016,-0.0177,-0.0186,-0.0205,-0.0215,-0.0233,-0.0217,-0.0213,-0.0211,-0.0209,-0.0229,-0.0227,-0.0245,-0.0245,-0.0245,0,0,0.0003,-0.001,-0.0014,-0.0033,-0.0048,-0.0054,-0.0076,-0.0086,-0.0088,-0.0121,-0.0129,-0.015,-0.0177,-0.0187,-0.0193,-0.0201,-0.0214,-0.021,-0.0207,-0.0208,-0.0228,-0.0226,-0.0225,-0.0245,-0.0245,-0.0245,0,0,0.0019,0.0005,0.0006,-0.0005,-0.0024,-0.0039,-0.0039,-0.0064,-0.0073,-0.0085,-0.0107,-0.0123,-0.0151,-0.0167,-0.0179,-0.0171,-0.0195,-0.0176,-0.0156,-0.0174,-0.0173,-0.0172,-0.0185,-0.0186,-0.0175,-0.0175,-0.0175,0,0.0032,0.0027,0.0004,0.0004,-0.0001,-0.0029,-0.0026,-0.004,-0.0065,-0.0069,-0.0081,-0.0118,-0.0142,-0.0152,-0.015,-0.0163,-0.0176,-0.0166,-0.017,-0.0169,-0.0169,-0.0183,-0.0184,-0.0173,-0.0173,-0.0173,-0.0174,0,0.0045,0.0043,0.0044,0.0034,0.0027,0.0025,0.0004,-0.0002,-0.0016,-0.0033,-0.0047,-0.008,-0.0101,-0.0111,-0.013,-0.0137,-0.0147,-0.0162,-0.0177,-0.0164,-0.018,-0.0182,-0.017,-0.0171,-0.0171,-0.0172,0,0,0.0075,0.0057,0.006,0.0061,0.0044,0.0041,0.004,0.0029,0.0034,0.0004,0.0004,-0.0031,-0.0051,-0.0066,-0.0091,-0.0111,-0.0121,-0.0133,-0.0135,-0.0142,-0.0157,-0.016,-0.0162,-0.0135,-0.0135,-0.0135,-0.0167,0,0.0096,0.0103,0.0088,0.0099,0.0102,0.0081,0.0085,0.0073,0.0059,0.0052,0.0014,0.0003,-0.0033,-0.0039,-0.0065,-0.0105,-0.0125,-0.0111,-0.0173,-0.0174,-0.0175,-0.0164,-0.0144,-0.017,-0.0169,-0.0169,-0.0169,0,0.0117,0.012,0.0132,0.0134,0.0134,0.0138,0.0142,0.0139,0.0121,0.0109,0.0086,0.0059,0.0027,-0.0005,-0.007,-0.0058,-0.0104,-0.0139,-0.0142,-0.0161,-0.0181,-0.0185,-0.0174,-0.0274,-0.0173,-0.0173,-0.0172,0,0.0151,0.0154,0.0166,0.0165,0.0161,0.0168,0.0167,0.0158,0.0168,0.0145,0.0149,0.0102,0.0088,0.0022,-0.0049,-0.006,-0.0119,-0.0144,-0.019,-0.0191,-0.0195,-0.0196,-0.0286,-0.0192,-0.0192,-0.0192,-0.0191,0,0.0179,0.0191,0.0183,0.0191,0.0214,0.02,0.0222,0.0215,0.0217,0.0239,0.0181,0.0192,0.0095,0.0053,-0.0028,-0.0107,-0.0103,-0.0184,-0.0199,-0.0179,-0.0178,-0.0283,-0.0358,-0.0193,-0.0192,-0.0192,-0.0192,0,0.0212,0.0204,0.022,0.0224,0.0229,0.0245,0.0262,0.0282,0.0272,0.0301,0.03,0.0264,0.0209,0.0113,0.0014,-0.0068,-0.0217,-0.0183,-0.0149,-0.0159,-0.0304,-0.0377,-0.0503,-0.0566,-0.0244,-0.0245,-0.0245,0,0.0227,0.0237,0.0249,0.0264,0.0266,0.0286,0.0307,0.0309,0.0335,0.0354,0.0377,0.0341,0.0332,0.0181,0.0032,-0.0104,-0.0218,-0.0189,-0.0213,-0.0308,-0.0401,-0.0456,-0.0504,-0.0201,-0.0201,-0.0201,-0.0201,0,0.0258,0.0259,0.0273,0.0304,0.0328,0.0357,0.0387,0.0419,0.0435,0.0471,0.0514,0.0516,0.0381,0.0263,0.0068,-0.0042,-0.0275,-0.0191,-0.0299,-0.0384,-0.0441,-0.0508,-0.0185,-0.02,-0.02,-0.02,-0.02,-0.02,0.0282,0.0298,0.0314,0.0345,0.0377,0.0424,0.0455,0.0505,0.0566,0.0634,0.063,0.067,0.0487,0.0229,0.005,-0.0247,-0.028,-0.0333,-0.0415,-0.0463,-0.0525,-0.0196,-0.0222,-0.0222,-0.0222,-0.0222,-0.0223,0,0.0311,0.0325,0.0355,0.039,0.0431,0.0442,0.0507,0.0549,0.0635,0.0732,0.0785,0.0769,0.0512,0.0239,-0.0149,-0.0396,-0.0518,-0.0549,-0.0627,-0.0669,-0.0376,-0.0373,-0.0419,-0.0418,-0.0418,-0.0418,-0.0418,-0.0418,0.0326,0.0353,0.0364,0.0426,0.0456,0.0511,0.0551,0.0632,0.0715,0.0852,0.0935,0.0977,0.084,0.0068,-0.0446,-0.06,-0.0813,-0.0871,-0.0984,-0.0782,-0.0767,-0.0754,-0.0768,-0.0895,-0.0896,-0.1228,-0.1232,-0.1234]}],[{"header":{"parameterUnit":"m.s-1","parameterCategory":2,"la1":30.2991,"la2":30.254,"lo1":-89.0895,"lo2":-89.0444,"dy":0.0017,"dx":0.0017,"nx":28,"ny":28,"refTime":"2023-09-03T21:00:00:Z","depth":"2","parameterNumber":2,"parameterNumberName":"U-component_of_CURRENTS"},"data":[0,0,0,0,0,0,0,0,0,0,0,0,0,0,0,0,0,0,0,0,0,0,0,0,0,0,0,0,0,0,0,0,0,0,0,0,0,0,0,0,0,0,0,0,0,0,0,0,0,0,0,0,0,0,0,0,0,0,0.1611,0.1611,0,0.1614,0.1614,0.1614,0.1606,0.1606,0.1605,0.1605,0.1597,0.1597,0.1597,0,0,0,0,0,0,0,0,0,0,0,0,0,0.1592,0.1592,0.1611,0.1611,0.1611,0.1614,0.1614,0.1614,0.1606,0.1606,0.1605,0.1605,0.1597,0.1597,0.1597,0,0,0,0,0,0,0,0,0,0,0,0,0,0.1597,0.1592,0.1611,0.1609,0.1608,0.1614,0.1614,0.1614,0.1606,0.1605,0.1605,0.1605,0.1597,0.1597,0.1597,0.1599,0,0,0.1596,0.1596,0,0,0,0,0,0,0,0,0.1596,0.1597,0.1609,0.1609,0.1609,0.1611,0.1605,0.1609,0.1606,0.1605,0.1605,0.1605,0.1602,0.1601,0.16,0.1599,0.1598,0.1596,0.1596,0.1596,0.1596,0,0,0,0,0,0,0,0.1596,0.1597,0.161,0.1609,0.1609,0.1606,0.1606,0.1605,0.1603,0.1605,0.1605,0.1608,0.1602,0.16,0.16,0.1598,0.1596,0.1596,0.1596,0.1596,0.1619,0.162,0,0,0,0,0,0,0.16,0.1597,0.161,0.1611,0.1604,0.1607,0.1607,0.1609,0.1603,0.1602,0.1608,0.1608,0.1601,0.16,0.1599,0.1618,0.1596,0.1596,0.1596,0.1619,0.162,0.162,0,0,0,0,0,0,0.1599,0.1601,0.161,0.1605,0.1606,0.1607,0.1609,0.1609,0.1611,0.1606,0.1605,0.1611,0.16,0.16,0.1605,0.1617,0.1596,0.1596,0.1618,0.1619,0.162,0.1644,0,0,0,0,0,0,0.1599,0.1601,0.1602,0.1605,0.1607,0.1618,0.161,0.1609,0.1614,0.1613,0.1608,0.1607,0.16,0.1605,0.1605,0.1616,0.1596,0.1617,0.1618,0.162,0.1642,0.1645,0.1648,0,0,0,0,0,0.1598,0.1601,0.1602,0.1604,0.161,0.1618,0.1619,0.1618,0.1614,0.1618,0.1616,0.1607,0.1614,0.1606,0.1605,0.1616,0.1616,0.1618,0.1619,0.164,0.1645,0.1648,0,0,0,0,0,0,0.159,0.16,0.1602,0.1607,0.1615,0.1618,0.1621,0.1621,0.1622,0.1621,0.1614,0.1613,0.1622,0.1618,0.1609,0.1628,0.1615,0.1616,0.1631,0.1635,0.1638,0.164,0.1595,0,0,0,0,0,0.1591,0.1596,0.1607,0.161,0.1616,0.1619,0.1623,0.1624,0.1626,0.1626,0.1623,0.1623,0.1628,0.163,0.163,0.164,0.165,0.1648,0.1651,0.1654,0.1656,0.1685,0.1692,0.1626,0.1626,0.1626,0,0,0.1587,0.1595,0.1597,0.1609,0.1614,0.1624,0.162,0.1629,0.1636,0.1626,0.1632,0.1633,0.1633,0.1644,0.1648,0.1641,0.1681,0.1656,0.1658,0.1659,0.1688,0.1694,0.17,0.1627,0.1627,0.1626,0,0,0.1586,0.1593,0.1598,0.1609,0.1623,0.1628,0.1633,0.164,0.1643,0.1651,0.1649,0.1659,0.1659,0.1666,0.1669,0.1692,0.1696,0.1693,0.1711,0.174,0.1745,0.175,0.1781,0.1788,0.1696,0.1696,0.1696,0,0.1581,0.159,0.1601,0.1612,0.1621,0.1631,0.164,0.1648,0.1656,0.1663,0.1656,0.1674,0.1671,0.1694,0.1701,0.1699,0.1717,0.1695,0.1744,0.1749,0.1754,0.1784,0.1792,0.1697,0.1697,0.1697,0.1696,0,0.1586,0.1595,0.1601,0.1619,0.163,0.164,0.1656,0.1668,0.1672,0.1681,0.1702,0.1704,0.1716,0.172,0.1714,0.175,0.1753,0.1744,0.1734,0.1762,0.1792,0.18,0.1699,0.1698,0.1698,0.1698,0,0,0.1565,0.1597,0.1598,0.1609,0.1634,0.1643,0.1664,0.1686,0.1702,0.1713,0.1736,0.1746,0.1752,0.1757,0.1759,0.1782,0.183,0.1778,0.1779,0.1807,0.1902,0.1916,0.1926,0.1832,0.1834,0.1835,0.1912,0,0.1564,0.1583,0.1602,0.162,0.163,0.1653,0.1673,0.1696,0.1714,0.174,0.1758,0.1778,0.1766,0.1777,0.1799,0.1823,0.1851,0.181,0.1871,0.1872,0.1881,0.1936,0.1771,0.1827,0.192,0.1921,0.1922,0,0.1558,0.1574,0.1589,0.1622,0.163,0.1643,0.1678,0.1699,0.1743,0.1761,0.1791,0.1805,0.1845,0.1827,0.189,0.1867,0.1886,0.1903,0.1906,0.1915,0.1902,0.1812,0.1838,0.1935,0.1934,0.1933,0.1932,0,0.1529,0.1562,0.1573,0.1583,0.1623,0.1636,0.166,0.1701,0.1724,0.1778,0.1805,0.1849,0.188,0.1911,0.1948,0.1923,0.2021,0.1989,0.2023,0.2024,0.1893,0.1881,0.2036,0.2036,0.2035,0.2035,0.2035,0,0.1514,0.1521,0.156,0.1564,0.1582,0.1619,0.1642,0.1677,0.1731,0.1765,0.1813,0.1858,0.1903,0.196,0.1977,0.204,0.2049,0.2043,0.2052,0.1899,0.1887,0.198,0.1973,0.2038,0.2037,0.2037,0.2036,0,0.1473,0.1499,0.1512,0.1554,0.1564,0.1575,0.1624,0.1649,0.1709,0.1759,0.1782,0.1879,0.1966,0.2015,0.2084,0.2087,0.2135,0.2151,0.1977,0.1965,0.2108,0.2101,0.2194,0.2195,0.2196,0.2197,0.2198,0,0.1451,0.1455,0.149,0.1497,0.1512,0.1536,0.1557,0.1622,0.1655,0.1772,0.1801,0.1913,0.1982,0.211,0.214,0.2194,0.2197,0.2068,0.199,0.2129,0.2128,0.2119,0.211,0.1823,0.182,0.1819,0.1817,0,0.141,0.1423,0.1436,0.1453,0.147,0.1488,0.1526,0.1547,0.1634,0.1699,0.1798,0.1868,0.2007,0.201,0.2101,0.2101,0.2046,0.2034,0.2225,0.1821,0.1789,0.1785,0.1786,0.18,0.1802,0.1803,0.1804,0.1804,0.1375,0.1373,0.1395,0.1402,0.1422,0.1432,0.1429,0.1485,0.1537,0.1613,0.173,0.1796,0.186,0.1934,0.1905,0.1893,0.2031,0.1926,0.1927,0.1932,0.1887,0.1861,0.1877,0.1879,0.188,0.1882,0.1883,0,0.1325,0.1333,0.1344,0.1349,0.1346,0.1377,0.1403,0.1399,0.1434,0.1538,0.1612,0.156,0.1596,0.1653,0.1622,0.1658,0.1584,0.1578,0.1451,0.1473,0.1491,0.1417,0.1285,0.1283,0.128,0.1278,0,0,0.1301,0.1289,0.1294,0.1267,0.1272,0.1249,0.1249,0.1263,0.1318,0.1355,0.1392,0.1531,0.1629,0.143,0.1427,0.1347,0.1384,0.1294,0.1785,0.1658,0.1672,0.1719,0.1637,0,0,0,0,0]},{"header":{"parameterUnit":"m.s-1","parameterCategory":2,"la1":30.2991,"la2":30.254,"lo1":-89.0895,"lo2":-89.0444,"dy":0.0017,"dx":0.0017,"nx":28,"ny":28,"refTime":"2023-09-03T21:00:00:Z","depth":"2","parameterNumber":3,"parameterNumberName":"V-component_of_CURRENTS"},"data":[0,0,0,0,0,0,0,0,0,0,0,0,0,0,0,0,0,0,0,0,0,0,0,0,0,0,0,0,0,0,0,0,0,0,0,0,0,0,0,0,0,0,0,0,0,0,0,0,0,0,0,0,0,0,0,0,0,0,-0.0108,-0.0109,0,-0.0157,-0.0157,-0.0158,-0.0183,-0.0183,-0.0183,-0.0183,-0.0236,-0.0237,-0.0239,0,0,0,0,0,0,0,0,0,0,0,0,0,-0.0063,-0.0063,-0.0108,-0.0109,-0.0109,-0.0157,-0.0157,-0.0158,-0.0183,-0.0183,-0.0183,-0.0183,-0.0236,-0.0237,-0.0239,0,0,0,0,0,0,0,0,0,0,0,0,0,-0.0094,-0.0063,-0.0108,-0.0128,-0.013,-0.0156,-0.0157,-0.0158,-0.0183,-0.0183,-0.0183,-0.0183,-0.0235,-0.0237,-0.0239,-0.0251,0,0,-0.0245,-0.0246,0,0,0,0,0,0,0,0,-0.0092,-0.0096,-0.0124,-0.0126,-0.0129,-0.0164,-0.016,-0.0189,-0.0183,-0.0163,-0.0183,-0.0184,-0.0212,-0.0216,-0.0225,-0.0254,-0.0256,-0.0246,-0.0247,-0.0248,-0.0248,0,0,0,0,0,0,0,-0.009,-0.0094,-0.0128,-0.0125,-0.0128,-0.0142,-0.0147,-0.0166,-0.0187,-0.0165,-0.0167,-0.0172,-0.0213,-0.0223,-0.0227,-0.0257,-0.0246,-0.0247,-0.0249,-0.0249,-0.0289,-0.0289,0,0,0,0,0,0,-0.0082,-0.0092,-0.0126,-0.0129,-0.011,-0.0143,-0.0148,-0.0153,-0.0187,-0.0192,-0.0172,-0.0173,-0.022,-0.0224,-0.0229,-0.0231,-0.0248,-0.025,-0.0251,-0.0289,-0.0289,-0.0289,0,0,0,0,0,0,-0.0081,-0.0085,-0.0124,-0.0111,-0.0117,-0.0144,-0.0149,-0.0154,-0.0162,-0.0192,-0.0197,-0.0175,-0.022,-0.0226,-0.024,-0.0234,-0.0251,-0.0252,-0.0289,-0.0289,-0.0289,-0.0246,0,0,0,0,0,0,-0.008,-0.0084,-0.0084,-0.0111,-0.0118,-0.0135,-0.0149,-0.0155,-0.0165,-0.0166,-0.0196,-0.0201,-0.022,-0.0237,-0.0242,-0.0237,-0.0254,-0.029,-0.0289,-0.0289,-0.0247,-0.0244,-0.0241,0,0,0,0,0,-0.0078,-0.0076,-0.0084,-0.0088,-0.0117,-0.0134,-0.0139,-0.0158,-0.0164,-0.0166,-0.0184,-0.02,-0.0239,-0.0239,-0.0245,-0.024,-0.029,-0.0289,-0.0289,-0.0249,-0.0244,-0.0241,0,0,0,0,0,0,-0.0054,-0.0079,-0.0088,-0.0094,-0.011,-0.0138,-0.0142,-0.0155,-0.0171,-0.0171,-0.0199,-0.0205,-0.0215,-0.0234,-0.0234,-0.0251,-0.0266,-0.0267,-0.0234,-0.023,-0.0227,-0.0219,-0.0256,0,0,0,0,0,-0.0049,-0.0055,-0.008,-0.0083,-0.0091,-0.0115,-0.0124,-0.0136,-0.0155,-0.0162,-0.0183,-0.0203,-0.022,-0.0229,-0.0247,-0.0258,-0.0274,-0.0259,-0.0256,-0.0253,-0.0251,-0.0269,-0.0268,-0.0287,-0.0287,-0.0287,0,0,-0.0042,-0.0055,-0.0059,-0.0079,-0.0093,-0.0099,-0.0121,-0.013,-0.0132,-0.0165,-0.0173,-0.0193,-0.022,-0.0229,-0.0236,-0.0244,-0.0255,-0.0252,-0.0249,-0.0249,-0.0269,-0.0267,-0.0265,-0.0287,-0.0287,-0.0287,0,0,-0.0026,-0.004,-0.0039,-0.0051,-0.0069,-0.0084,-0.0084,-0.0109,-0.0117,-0.0129,-0.015,-0.0166,-0.0194,-0.021,-0.0222,-0.0213,-0.0237,-0.0218,-0.0197,-0.0215,-0.0213,-0.0212,-0.0225,-0.0226,-0.0217,-0.0217,-0.0217,0,-0.0013,-0.0019,-0.0041,-0.0041,-0.0046,-0.0074,-0.0071,-0.0084,-0.0109,-0.0113,-0.0125,-0.0161,-0.0184,-0.0194,-0.0192,-0.0205,-0.0218,-0.0208,-0.021,-0.021,-0.0209,-0.0223,-0.0224,-0.0215,-0.0215,-0.0216,-0.0216,0,-0.0,-0.0002,-0.0001,-0.0011,-0.0019,-0.002,-0.0041,-0.0046,-0.0061,-0.0077,-0.009,-0.0123,-0.0143,-0.0153,-0.0172,-0.0178,-0.0188,-0.0203,-0.0218,-0.0204,-0.022,-0.0222,-0.0212,-0.0213,-0.0214,-0.0214,0,0,0.0029,0.0011,0.0014,0.0016,-0.0002,-0.0004,-0.0005,-0.0015,-0.001,-0.004,-0.0039,-0.0073,-0.0092,-0.0107,-0.0132,-0.0151,-0.0159,-0.0173,-0.0174,-0.0181,-0.0194,-0.0198,-0.02,-0.0173,-0.0173,-0.0173,-0.0204,0,0.0049,0.0057,0.0042,0.0053,0.0055,0.0036,0.0039,0.0028,0.0014,0.0008,-0.0028,-0.0039,-0.0074,-0.008,-0.0104,-0.0144,-0.0163,-0.0149,-0.021,-0.0212,-0.0213,-0.0202,-0.0195,-0.0221,-0.0206,-0.0206,-0.0206,0,0.0071,0.0073,0.0085,0.0088,0.0088,0.0091,0.0097,0.0094,0.0077,0.0065,0.0044,0.0017,-0.0012,-0.0044,-0.0107,-0.0096,-0.0141,-0.0176,-0.0178,-0.0199,-0.0219,-0.0234,-0.0225,-0.021,-0.021,-0.0209,-0.0209,0,0.0104,0.0107,0.0119,0.0119,0.0114,0.0122,0.0121,0.0113,0.0123,0.0102,0.0107,0.0062,0.0048,-0.0017,-0.0086,-0.0097,-0.0154,-0.0179,-0.0226,-0.0226,-0.024,-0.0242,-0.0225,-0.0224,-0.0224,-0.0224,-0.0224,0,0.0132,0.0144,0.0136,0.0144,0.0168,0.0153,0.0176,0.017,0.0172,0.0195,0.0139,0.0149,0.0055,0.0014,-0.0065,-0.0143,-0.0139,-0.0219,-0.0234,-0.0225,-0.0224,-0.0234,-0.0235,-0.0225,-0.0225,-0.0225,-0.0225,0,0.0164,0.0157,0.0173,0.0177,0.0182,0.0199,0.0216,0.0236,0.0227,0.0256,0.0255,0.022,0.0166,0.0072,-0.0024,-0.0105,-0.0188,-0.0218,-0.0197,-0.0209,-0.0256,-0.0254,-0.0278,-0.0278,-0.0279,-0.0279,-0.0279,0,0.018,0.0189,0.0202,0.0217,0.0219,0.024,0.026,0.0263,0.0288,0.0307,0.033,0.0294,0.0283,0.0134,-0.0014,-0.0149,-0.017,-0.0237,-0.0263,-0.0249,-0.0261,-0.0259,-0.0257,-0.0264,-0.0265,-0.0265,-0.0265,0,0.021,0.0212,0.0225,0.0256,0.028,0.0309,0.0338,0.037,0.0386,0.0419,0.0461,0.046,0.0324,0.0192,-0.0001,-0.0101,-0.0218,-0.0243,-0.0232,-0.0249,-0.0238,-0.0249,-0.0247,-0.0265,-0.0265,-0.0265,-0.0265,-0.0265,0.0234,0.025,0.0266,0.0297,0.0329,0.0374,0.0405,0.0446,0.0503,0.0549,0.0552,0.0545,0.0398,0.0151,-0.0018,-0.0212,-0.0208,-0.0283,-0.0283,-0.0282,-0.0272,-0.0261,-0.0291,-0.0291,-0.0291,-0.0291,-0.0291,0,0.026,0.0276,0.0306,0.0341,0.0378,0.0392,0.0456,0.0481,0.0552,0.0602,0.0634,0.0506,0.0362,0.0185,-0.0098,-0.026,-0.0281,-0.0315,-0.0304,-0.0302,-0.0301,-0.0292,-0.0317,-0.0317,-0.0318,-0.0318,0,0,0.0274,0.03,0.031,0.0369,0.0401,0.0448,0.0487,0.0535,0.0573,0.0616,0.0625,0.0613,0.0418,0.0214,-0.0004,-0.0164,-0.0202,-0.0201,-0.0165,-0.0126,-0.0123,-0.0268,-0.025,0,0,0,0,0]}],[{"header":{"parameterUnit":"m.s-1","parameterCategory":2,"la1":30.2991,"la2":30.254,"lo1":-89.0895,"lo2":-89.0444,"dy":0.0017,"dx":0.0017,"nx":28,"ny":28,"refTime":"2023-09-03T21:00:00:Z","depth":"4","parameterNumber":2,"parameterNumberName":"U-component_of_CURRENTS"},"data":[0,0,0,0,0,0,0,0,0,0,0,0,0,0,0,0,0,0,0,0,0,0,0,0,0,0,0,0,0,0,0,0,0,0,0,0,0,0,0,0,0,0,0,0,0,0,0,0,0,0,0,0,0,0,0,0,0,0,0.1162,0.1162,0,0.1202,0.1203,0.1203,0.124,0.124,0.1241,0.1241,0.1292,0.1293,0.1294,0,0,0,0,0,0,0,0,0,0,0,0,0,0.1105,0.1106,0.1162,0.1163,0.1163,0.1202,0.1203,0.1203,0.124,0.124,0.1241,0.1242,0.1292,0.1293,0.1294,0,0,0,0,0,0,0,0,0,0,0,0,0,0.1135,0.1106,0.1162,0.1187,0.119,0.1202,0.1203,0.1203,0.1239,0.124,0.1241,0.1242,0.1292,0.1293,0.1294,0.1285,0,0,0.1298,0.1299,0,0,0,0,0,0,0,0,0.1133,0.1137,0.1183,0.1185,0.1188,0.1218,0.1202,0.1232,0.1239,0.1219,0.1241,0.1242,0.1269,0.1272,0.1276,0.1288,0.129,0.1298,0.1299,0.13,0.13,0,0,0,0,0,0,0,0.1131,0.1135,0.1177,0.1183,0.1187,0.1193,0.1198,0.1207,0.1238,0.1221,0.1224,0.123,0.127,0.1274,0.1277,0.1291,0.1298,0.1299,0.13,0.1301,0.1368,0.1369,0,0,0,0,0,0,0.1128,0.1133,0.1175,0.1178,0.1164,0.1193,0.1199,0.1207,0.1238,0.1244,0.123,0.1232,0.1272,0.1276,0.1279,0.1334,0.13,0.1301,0.1302,0.1367,0.1369,0.137,0,0,0,0,0,0,0.1127,0.1132,0.1174,0.1157,0.1163,0.1193,0.1202,0.1207,0.1235,0.1244,0.125,0.1256,0.1273,0.1277,0.1311,0.1334,0.1301,0.1303,0.1366,0.1368,0.1369,0.1404,0,0,0,0,0,0,0.1125,0.1131,0.1147,0.1157,0.1164,0.1197,0.1201,0.1207,0.1237,0.1241,0.1268,0.1272,0.1274,0.1309,0.1312,0.1335,0.1304,0.1365,0.1367,0.1369,0.1401,0.1406,0.1411,0,0,0,0,0,0.1123,0.1137,0.1148,0.1153,0.1182,0.1197,0.1202,0.1224,0.1238,0.1253,0.1274,0.1273,0.1323,0.1311,0.1314,0.1339,0.1364,0.1366,0.1369,0.1399,0.1406,0.1411,0,0,0,0,0,0,0.1122,0.1143,0.1154,0.1176,0.1193,0.1205,0.1225,0.1237,0.1265,0.1277,0.1284,0.129,0.1327,0.1328,0.1314,0.1364,0.1344,0.1347,0.1366,0.1372,0.1377,0.1373,0.1305,0,0,0,0,0,0.1128,0.1148,0.1163,0.1184,0.1195,0.1214,0.1228,0.1243,0.1263,0.1278,0.1296,0.1317,0.1334,0.1351,0.1364,0.1391,0.1394,0.141,0.1415,0.1418,0.1419,0.1444,0.1451,0.1377,0.1377,0.1377,0,0,0.1134,0.1149,0.1161,0.1186,0.1204,0.1221,0.1225,0.1254,0.1274,0.1278,0.132,0.1334,0.1345,0.1376,0.1393,0.1384,0.1443,0.1421,0.1425,0.1423,0.1447,0.1454,0.146,0.1379,0.1379,0.1378,0,0,0.1146,0.117,0.1187,0.1203,0.1233,0.1243,0.1256,0.1281,0.1302,0.1336,0.1346,0.1375,0.1404,0.1416,0.1425,0.1463,0.1465,0.1473,0.1498,0.1523,0.1529,0.1534,0.1554,0.156,0.1478,0.1478,0.1478,0,0.1154,0.1176,0.1195,0.1213,0.1231,0.1255,0.1275,0.1295,0.133,0.1349,0.1357,0.1408,0.142,0.1454,0.147,0.1474,0.1487,0.1475,0.1528,0.1534,0.1538,0.1557,0.1564,0.148,0.148,0.148,0.148,0,0.1168,0.1195,0.1208,0.124,0.126,0.1284,0.1309,0.1339,0.1367,0.1386,0.1434,0.1453,0.1482,0.1494,0.1495,0.1539,0.1538,0.1529,0.1512,0.1548,0.1565,0.1572,0.1483,0.1482,0.1482,0.1481,0,0,0.1159,0.1209,0.1216,0.1236,0.1278,0.1292,0.1332,0.1367,0.1396,0.1436,0.1473,0.151,0.1526,0.1537,0.1548,0.1572,0.1621,0.1571,0.1572,0.1587,0.1681,0.1589,0.1587,0.1627,0.1628,0.1629,0.1681,0,0.1167,0.1203,0.1228,0.1267,0.1286,0.1322,0.1353,0.1391,0.1427,0.1468,0.15,0.1539,0.1541,0.1565,0.159,0.1613,0.164,0.1608,0.1646,0.1647,0.1558,0.1592,0.1633,0.1686,0.1687,0.1689,0.1689,0,0.1165,0.1192,0.123,0.1281,0.1294,0.1322,0.1377,0.1409,0.1466,0.1497,0.1543,0.1568,0.1618,0.161,0.1671,0.1655,0.1672,0.1686,0.1688,0.1592,0.1567,0.1642,0.1701,0.17,0.1699,0.1699,0.1698,0,0.1136,0.1191,0.1224,0.1241,0.13,0.133,0.1366,0.1421,0.1453,0.1522,0.1554,0.1609,0.1649,0.168,0.1715,0.1702,0.1775,0.1755,0.1689,0.1683,0.1734,0.1728,0.1795,0.1795,0.1795,0.1795,0.1795,0,0.1118,0.1147,0.1217,0.1232,0.1273,0.1322,0.1368,0.1412,0.1475,0.1509,0.1571,0.1604,0.1671,0.1718,0.1735,0.1734,0.1794,0.1696,0.169,0.1749,0.1744,0.174,0.1732,0.1797,0.1796,0.1796,0.1796,0,0.1074,0.1123,0.1162,0.1234,0.1259,0.1289,0.1365,0.1393,0.1464,0.1512,0.1539,0.1622,0.1677,0.1731,0.1789,0.1751,0.1763,0.175,0.182,0.1817,0.1648,0.1643,0.1667,0.1664,0.1662,0.166,0.1658,0,0.1052,0.107,0.1153,0.1178,0.1215,0.1268,0.13,0.1378,0.1404,0.1507,0.152,0.1609,0.1652,0.1659,0.1726,0.1752,0.1737,0.1729,0.1671,0.1643,0.1636,0.1634,0.1631,0.1654,0.1654,0.1653,0.1652,0,0.1008,0.105,0.1084,0.1136,0.1179,0.1213,0.1265,0.1273,0.1357,0.1437,0.1462,0.1494,0.1555,0.1597,0.1635,0.165,0.1721,0.1704,0.1708,0.1653,0.1628,0.1623,0.1623,0.1644,0.1645,0.1646,0.1647,0,0.0979,0.0992,0.1047,0.1081,0.1132,0.1142,0.1175,0.1203,0.1238,0.1341,0.1352,0.1447,0.1534,0.1546,0.1583,0.159,0.1562,0.1506,0.1519,0.1529,0.1462,0.1408,0.1354,0,0,0,0,0,0.0942,0.0951,0.0985,0.1017,0.1063,0.1092,0.1145,0.1178,0.1254,0.1236,0.1285,0.1332,0.1379,0.1437,0.1418,0.1536,0.1577,0.1509,0.1521,0.1598,0.1608,0.1541,0,0,0,0,0,0,0.0918,0.0952,0.0962,0.0955,0.0965,0.1004,0.1034,0.1086,0.1074,0.1158,0.119,0.1262,0.133,0.1379,0.1397,0.1415,0.1397,0.1574,0.157,0.1593,0.1601,0.1609,0.1544,0,0,0,0,0]},{"header":{"parameterUnit":"m.s-1","parameterCategory":2,"la1":30.2991,"la2":30.254,"lo1":-89.0895,"lo2":-89.0444,"dy":0.0017,"dx":0.0017,"nx":28,"ny":28,"refTime":"2023-09-03T21:00:00:Z","depth":"4","parameterNumber":3,"parameterNumberName":"V-component_of_CURRENTS"},"data":[0,0,0,0,0,0,0,0,0,0,0,0,0,0,0,0,0,0,0,0,0,0,0,0,0,0,0,0,0,0,0,0,0,0,0,0,0,0,0,0,0,0,0,0,0,0,0,0,0,0,0,0,0,0,0,0,0,0,-0.0112,-0.0113,0,-0.0148,-0.0149,-0.0149,-0.0172,-0.0172,-0.0172,-0.0173,-0.0219,-0.022,-0.0221,0,0,0,0,0,0,0,0,0,0,0,0,0,-0.0078,-0.0078,-0.0112,-0.0113,-0.0113,-0.0148,-0.0149,-0.0149,-0.0172,-0.0172,-0.0172,-0.0173,-0.0218,-0.0219,-0.0221,0,0,0,0,0,0,0,0,0,0,0,0,0,-0.0101,-0.0078,-0.0112,-0.0129,-0.0131,-0.0148,-0.0149,-0.0149,-0.0172,-0.0172,-0.0173,-0.0173,-0.0218,-0.0219,-0.0221,-0.0227,0,0,-0.0226,-0.0227,0,0,0,0,0,0,0,0,-0.01,-0.0102,-0.0126,-0.0128,-0.013,-0.0156,-0.0153,-0.0176,-0.0172,-0.0156,-0.0173,-0.0173,-0.0198,-0.0202,-0.0208,-0.0229,-0.0231,-0.0226,-0.0227,-0.0228,-0.0228,0,0,0,0,0,0,0,-0.0098,-0.0101,-0.0127,-0.0127,-0.0129,-0.0139,-0.0143,-0.0158,-0.0176,-0.0158,-0.016,-0.0163,-0.02,-0.0206,-0.0209,-0.0232,-0.0226,-0.0228,-0.0229,-0.0229,-0.0264,-0.0264,0,0,0,0,0,0,-0.0093,-0.0099,-0.0126,-0.0128,-0.0115,-0.014,-0.0144,-0.0147,-0.0176,-0.018,-0.0163,-0.0164,-0.0203,-0.0207,-0.0211,-0.0216,-0.0228,-0.0229,-0.023,-0.0264,-0.0264,-0.0264,0,0,0,0,0,0,-0.0092,-0.0095,-0.0124,-0.0114,-0.0119,-0.014,-0.0144,-0.0148,-0.0157,-0.018,-0.0184,-0.0168,-0.0204,-0.0208,-0.0223,-0.0218,-0.023,-0.0232,-0.0264,-0.0264,-0.0264,-0.0228,0,0,0,0,0,0,-0.0091,-0.0094,-0.0095,-0.0114,-0.0119,-0.0133,-0.0144,-0.0149,-0.0159,-0.0161,-0.0186,-0.019,-0.0204,-0.022,-0.0225,-0.022,-0.0233,-0.0264,-0.0264,-0.0264,-0.023,-0.0227,-0.0225,0,0,0,0,0,-0.0089,-0.0089,-0.0095,-0.0099,-0.012,-0.0133,-0.0136,-0.0152,-0.0159,-0.0161,-0.0177,-0.0189,-0.0223,-0.0222,-0.0227,-0.0223,-0.0264,-0.0264,-0.0264,-0.0231,-0.0228,-0.0225,0,0,0,0,0,0,-0.0074,-0.0092,-0.0099,-0.0104,-0.0117,-0.0136,-0.0141,-0.0151,-0.0166,-0.0168,-0.0189,-0.0195,-0.0205,-0.022,-0.0218,-0.0233,-0.0245,-0.0246,-0.0218,-0.0216,-0.0213,-0.0204,-0.0234,0,0,0,0,0,-0.0071,-0.0076,-0.0094,-0.0097,-0.0103,-0.0122,-0.0129,-0.0139,-0.0154,-0.0161,-0.0178,-0.0195,-0.0208,-0.0217,-0.0232,-0.024,-0.0252,-0.0241,-0.0239,-0.0236,-0.0233,-0.0244,-0.0242,-0.0263,-0.0263,-0.0263,0,0,-0.0067,-0.0076,-0.008,-0.0094,-0.0106,-0.0109,-0.0127,-0.0135,-0.0136,-0.0164,-0.0171,-0.0188,-0.0209,-0.0217,-0.0223,-0.0229,-0.0237,-0.0236,-0.0234,-0.0231,-0.0244,-0.0242,-0.024,-0.0263,-0.0263,-0.0263,0,0,-0.0057,-0.0068,-0.0068,-0.0076,-0.009,-0.01,-0.0102,-0.0121,-0.0128,-0.0138,-0.0155,-0.0168,-0.0193,-0.0202,-0.0211,-0.0205,-0.0224,-0.0213,-0.0193,-0.0204,-0.0202,-0.02,-0.0212,-0.0212,-0.0211,-0.0211,-0.0211,0,-0.005,-0.0053,-0.007,-0.007,-0.0072,-0.0094,-0.0091,-0.0101,-0.0121,-0.0123,-0.0137,-0.0165,-0.0183,-0.0187,-0.0187,-0.0199,-0.021,-0.02,-0.02,-0.0198,-0.0197,-0.021,-0.021,-0.0209,-0.0209,-0.0209,-0.021,0,-0.0041,-0.0042,-0.0042,-0.0048,-0.0052,-0.0054,-0.0067,-0.0072,-0.0085,-0.0095,-0.0105,-0.0132,-0.0146,-0.0156,-0.0171,-0.0172,-0.0184,-0.0194,-0.0204,-0.0193,-0.0207,-0.0208,-0.0207,-0.0207,-0.0208,-0.0208,0,0,-0.0025,-0.0034,-0.0033,-0.0028,-0.004,-0.004,-0.004,-0.0044,-0.0037,-0.0062,-0.0058,-0.0085,-0.0101,-0.0111,-0.0132,-0.0145,-0.015,-0.0165,-0.0167,-0.0172,-0.0176,-0.0177,-0.0179,-0.0161,-0.0161,-0.0161,-0.0188,0,-0.0012,-0.0004,-0.0012,-0.0,0.0003,-0.0009,-0.0003,-0.0008,-0.0017,-0.0018,-0.0045,-0.0052,-0.0083,-0.0089,-0.0106,-0.0137,-0.0151,-0.0142,-0.019,-0.0192,-0.019,-0.0179,-0.0161,-0.0189,-0.0189,-0.0189,-0.0189,0,0.0001,0.0005,0.0018,0.0028,0.0029,0.0035,0.0045,0.0046,0.004,0.0032,0.0018,-0.0003,-0.0023,-0.0052,-0.01,-0.0093,-0.0131,-0.0159,-0.0161,-0.0175,-0.0195,-0.0203,-0.0191,-0.0191,-0.0191,-0.0191,-0.0191,0,0.0021,0.0029,0.0042,0.0044,0.0049,0.0058,0.0062,0.0062,0.0074,0.0064,0.0069,0.0038,0.0028,-0.0023,-0.0083,-0.0092,-0.0137,-0.0156,-0.0193,-0.0194,-0.02,-0.0202,-0.0189,-0.0189,-0.0189,-0.0189,-0.0189,0,0.0038,0.005,0.0053,0.006,0.0085,0.008,0.0105,0.0104,0.0113,0.0135,0.0096,0.0104,0.0034,0.0,-0.0065,-0.0127,-0.0123,-0.0186,-0.0198,-0.0186,-0.0185,-0.0201,-0.0202,-0.019,-0.019,-0.0189,-0.0189,0,0.0054,0.0055,0.0072,0.0085,0.0093,0.0109,0.0135,0.0154,0.0155,0.0182,0.0183,0.0158,0.0112,0.0039,-0.0038,-0.0095,-0.0161,-0.0186,-0.0161,-0.0173,-0.0217,-0.0216,-0.0229,-0.0229,-0.023,-0.023,-0.023,0,0.0061,0.007,0.0092,0.0107,0.0113,0.0137,0.0157,0.0171,0.0194,0.0217,0.0234,0.0206,0.0177,0.0074,-0.0016,-0.0134,-0.0157,-0.0195,-0.0213,-0.0208,-0.022,-0.0219,-0.0217,-0.023,-0.023,-0.023,-0.023,0,0.0076,0.0082,0.0096,0.0127,0.0151,0.0183,0.0213,0.0237,0.026,0.0268,0.0287,0.0237,0.0186,0.0091,0.0001,-0.0089,-0.0172,-0.0198,-0.0198,-0.0216,-0.021,-0.0221,-0.0219,-0.0231,-0.0231,-0.0231,-0.0231,0,0.0088,0.0099,0.0117,0.0145,0.018,0.0217,0.0232,0.0265,0.0291,0.032,0.0327,0.0269,0.0241,0.0114,0.003,-0.0055,-0.0087,-0.0126,-0.0131,-0.0131,-0.0102,-0.008,-0.0066,0,0,0,0,0,0.0097,0.0109,0.0135,0.0166,0.0202,0.022,0.0267,0.028,0.0309,0.0333,0.0335,0.0289,0.018,0.0129,0.0044,0.0002,-0.012,-0.0103,-0.017,-0.0235,-0.0234,-0.0217,0,0,0,0,0,0,0.0103,0.0124,0.0134,0.0178,0.0201,0.0243,0.0272,0.0293,0.0304,0.0325,0.0271,0.0257,0.0146,0.0231,0.004,0.0014,-0.0044,-0.0152,-0.0154,-0.0235,-0.0234,-0.0234,-0.0216,0,0,0,0,0]}]]